Home   Weather   Chongqing   Past weeks
Flag for China

Past Weather in Chongqing, Chongqing Municipality, China — Yesterday and Last 2 Weeks

Now
77 °F

Scattered clouds.


Feels Like: 79 °F
Forecast: 88 / 71 °F
Wind: 6 mph from South

Location: Chongqing Airport

Current Time: May 25, 2019 at 3:18:33 pm

Latest Report: May 25, 2019 at 2:00 pm


Visibility: 5 mi

Pressure: 29.65 "Hg

Humidity: 79%

Dew Point: 70 °F

Location of ChongqingLocation

Past Weather in Chongqing — Graph

°F

Chongqing Temperature Yesterday

Maximum temperature yesterday: 79 °F (at 12:00 am)
Minimum temperature yesterday: 70 °F (at 7:00 am)
Average temperature yesterday: 76 °F

High & Low Weather Summary for the Past Weeks

 TemperatureHumidityPressure
High90 °F (May 23, 3:00 pm)100% (May 12, 3:00 am)30.12 "Hg (May 12, 3:00 am)
Low57 °F (May 22, 5:00 am)35% (May 23, 2:00 pm)29.56 "Hg (May 17, 6:00 pm)
Average71 °F83%29.81 "Hg
* Reported May 10 2:00 pm — May 25 2:00 pm, Chongqing. Weather by CustomWeather, © 2019

Note: Actual official high and low records may vary slightly from our data, if they occured in-between our weather recording intervals... More about our weather records

Advertising

Chongqing Weather History for the Previous 24 Hours

Scroll right to see more
 ConditionsComfort  
Time TempWeatherWind HumidityBarometerVisibility
2:00 pm
Sat, May 25
77 °FScattered clouds.6 mph79%29.65 "Hg5 mi
1:00 pm77 °FScattered clouds.3 mph79%29.65 "Hg5 mi
12:00 pm75 °FFog.6 mph83%29.68 "Hg3 mi
11:00 am73 °FFog.3 mph89%29.68 "Hg3 mi
10:00 am73 °FLight rain. Fog.1 mph89%29.68 "Hg3 mi
9:00 am72 °FLight rain. Fog.1 mph94%29.68 "Hg3 mi
8:00 am70 °FFog.1 mph100%29.68 "Hg2 mi
7:00 am70 °FLight rain. Fog.1 mph100%29.65 "Hg2 mi
6:00 am70 °FLight rain. Fog.3 mph100%29.62 "Hg1 mi
5:00 am70 °FLight rain. Fog.No wind100%29.65 "Hg1 mi
4:00 am70 °FLight rain. Fog.No wind100%29.65 "Hg1 mi
3:00 am70 °FLight rain. Fog.1 mph100%29.65 "Hg3 mi
2:00 am72 °FLight rain. Passing clouds.1 mph94%29.68 "HgN/A
1:00 am72 °FPassing clouds.6 mph88%29.68 "HgN/A
12:00 am72 °FOvercast.6 mph88%29.68 "HgN/A
11:00 pm
Fri, May 24
75 °FThunderstorms. Overcast.8 mph78%29.71 "HgN/A
10:00 pm77 °FClear.8 mph74%29.68 "Hg10 mi
9:00 pm77 °FClear.8 mph69%29.65 "Hg10 mi
8:00 pm77 °FClear.8 mph69%29.65 "Hg10 mi
7:00 pm77 °FSunny.8 mph74%29.65 "Hg10 mi
6:00 pm79 °FSunny.8 mph70%29.62 "Hg10 mi
5:00 pm79 °FPassing clouds.8 mph74%29.65 "HgN/A
4:00 pm79 °FPassing clouds.6 mph70%29.65 "HgN/A
3:00 pm79 °FPassing clouds.6 mph70%29.68 "HgN/A
Weather by CustomWeather, © 2019

See weather overview